This is the latest recevied weather packets stored in our database for station/object VA6GSB-13. If no packets are shown the sender has not sent any weather packets the latest 10 day(s).
| Time | Temp. | Humidity | Pressure | Rain* | Wind** | Luminosity | Snow |
|---|---|---|---|---|---|---|---|
| 1787607340 | 22.22° C | 47% | 1019 hPa | 0 mm | - | 726 W/m² | - |
| 1787607039 | 22.22° C | 48% | 1019 hPa | 0 mm | - | 703 W/m² | - |
| 1787606963 | 22.78° C | 48% | 1018.6 hPa | 0 mm | - | 677 W/m² | - |
| 1787606663 | 22.78° C | 46% | 1018.6 hPa | 0 mm | - | 748 W/m² | - |
| 1787606364 | 22.22° C | 49% | 1018.7 hPa | 0 mm | - | 796 W/m² | - |
| 1787606140 | 22.22° C | 50% | 1019 hPa | 0 mm | - | 688 W/m² | - |
| 1787605840 | 22.22° C | 50% | 1019 hPa | 0 mm | - | 547 W/m² | - |
| 1787605763 | 22.22° C | 50% | 1018.6 hPa | 0 mm | - | 667 W/m² | - |
| 1787605467 | 22.22° C | 51% | 1018.5 hPa | 0 mm | - | 383 W/m² | - |
| 1787605239 | 22.22° C | 50% | 1019 hPa | 0 mm | - | 767 W/m² | - |
| 1787605163 | 22.22° C | 51% | 1018.5 hPa | 0 mm | - | 658 W/m² | - |
| 1787604864 | 21.67° C | 50% | 1018.4 hPa | 0 mm | - | 796 W/m² | - |
| 1787604563 | 21.67° C | 54% | 1018.6 hPa | 0 mm | - | 627 W/m² | - |
| 1787604263 | 21.67° C | 53% | 1018.5 hPa | 0 mm | - | 201 W/m² | - |
| 1787603963 | 22.22° C | 51% | 1018.5 hPa | 0 mm | - | 723 W/m² | - |
| 1787603663 | 22.22° C | 52% | 1018.3 hPa | 0 mm | - | 808 W/m² | - |
| 1787603364 | 22.22° C | 54% | 1018.2 hPa | 0 mm | - | 830 W/m² | - |
| 1787603064 | 21.67° C | 54% | 1018.2 hPa | 0 mm | - | 825 W/m² | - |
| 1787602839 | 21.67° C | 54% | 1018 hPa | 0 mm | - | 715 W/m² | - |
| 1787602764 | 21.67° C | 53% | 1018.1 hPa | 0 mm | - | 849 W/m² | - |
| 1787602540 | 21.67° C | 55% | 1018 hPa | 0 mm | - | 805 W/m² | - |
| 1787602239 | 21.11° C | 55% | 1018 hPa | 0 mm | - | 792 W/m² | - |
| 1787601940 | 20.56° C | 56% | 1018 hPa | 0 mm | - | 642 W/m² | - |
| 1787601866 | 20.56° C | 57% | 1018.1 hPa | 0 mm | - | 606 W/m² | - |
| 1787601641 | 20.56° C | 58% | 1018 hPa | 0 mm | - | 468 W/m² | - |
* Rain latest hour (hover to see other rain measurements)
** Current wind speed in m/s (hover to see current wind gust speed)